User: anonymous   Login
Location: Goheenville
(40.9070°N, 79.3720°W)
Time: 02:52:33
(UTC-05:00)
Language:

Cosmos 1727 Rocket - Orbit

View from above orbital plane
View from above orbital plane
View from above satellite
View from above satellite

Ground track
Ground track

The orbit data is extracted from the following two-line orbital elements,

1 16511U 86008B   16341.67974584 +.00000013 +00000-0 -22842-5 0  9999
2 16511 082.9435 002.6867 0025556 100.1335 031.6523 13.75812618549541
Epoch (UTC): 06 December 2016 16:18:50
Eccentricity: 0.0025556
inclination: 82.9435°
perigee height: 960 km
apogee height: 997 km
right ascension of ascending node: 2.6867°
argument of perigee: 100.1335°
revolutions per day: 13.75812618
mean anomaly at epoch: 31.6523°
orbit number at epoch: 54954

The dashed part of the orbit path shows where the satellite is in the earth's shadow,  

DLR